Skip Page Navigation
NASA JPL Caltech
NASA Logo - Jet Propulsion Laboratory + View the NASA Portal
+ Center for Near-Earth Object Studies
JPL Home Earth Solar System Stars & Galaxies Technology
JPL Solar System Dynamics
BODIES ORBITS EPHEMERIDES TOOLS PHYSICAL DATA DISCOVERY FAQ SITE MAP
IMPORTANT: The SSD Announcement email list is now available. Major changes are coming in the near future, including possible hostname and/or URL changes. To be notified of such changes, subscribe to this email list.

Please visit this page for more details.


JPL Small-Body Database Browser
Search: [ help ]  
65283 (2002 GT172)
Classification: Main-belt Asteroid          SPK-ID: 2065283
Ephemeris | Orbit Diagram | Orbital Elements | Mission Design | Physical Parameters | Discovery Circumstances ]

[ show orbit diagram ]
Orbital Elements at Epoch 2459000.5 (2020-May-31.0) TDB
Reference: JPL 20 (heliocentric ecliptic J2000)
 Element Value Uncertainty (1-sigma)   Units 
e .1243310584062116 6.8073e-08  
a 2.519236562418211 1.1938e-08 au
q 2.206017214237129 1.733e-07 au
i 1.188552161565023 6.8814e-06 deg
node 153.5325113535102 0.000194 deg
peri 208.8663583318755 0.00019549 deg
M 36.03097330110554 2.3882e-05 deg
tp 2458854.324244878648
(2020-Jan-05.82424488)
9.6826e-05 TDB
period 1460.500980751249
4.00
1.0382e-05
2.842e-08
d
yr
n .2464907622416139 1.7521e-09 deg/d
Q 2.832455910599293 1.3422e-08 au
  Orbit Determination Parameters
   # obs. used (total)      731  
   data-arc span      10350 days (28.34 yr)  
   first obs. used      1991-08-05  
   last obs. used      2019-12-06  
   planetary ephem.      DE431  
   SB-pert. ephem.      SB431-N16  
   condition code      0  
   norm. resid. RMS      .52749  
   source      ORB  
   producer      Otto Matic  
   solution date      2019-Dec-14 06:55:44  

Additional Information
 Earth MOID = 1.20332 au 
 Jupiter MOID = 2.61505 au 
 T_jup = 3.446 
[ show covariance matrix ]

Ephemeris | Orbit Diagram | Orbital Elements | Mission Design | Physical Parameters | Discovery Circumstances ]

Physical Parameter Table
Parameter Symbol Value Units Sigma Reference Notes
absolute magnitude H 15.6   n/a MPO347951  

65283 (2002 GT172)          Discovered 2002-Apr-10 by LINEAR at Socorro
Reference: 20030614/Numbers.arcLast Updated: 2004-04-19

Alternate Designations
 2002 GT172 = 1991 PO28 = 2000 YU90 
Ephemeris | Orbit Diagram | Orbital Elements | Mission Design | Physical Parameters | Discovery Circumstances ]
ABOUT SSD CREDITS/AWARDS PRIVACY/COPYRIGHT GLOSSARY LINKS
FirstGov 2020-Mar-29 10:03 UT
(server date/time)  
NASA Home Page
Site Manager:   Ryan S. Park
Webmaster  Alan B. Chamberlin